GW1213 Weather Reports


time (UTC)temp
C
wind
direction
speed
KPH
gust
KPH
rain 1hr
cm
rain 24hr
cm
rain mn
cm
humidity
%
barometer
mb
20260508125038 12 0 0.0 0.0 0.00 0.03 0.00 74 1016.2
20260508124552 12 0 0.0 0.0 0.00 0.03 0.00 79 1016.2
20260508124038 12 0 0.0 0.0 0.00 0.03 0.00 83 1016.2
20260508123538 11 0 0.0 0.0 0.00 0.03 0.00 86 1016.1
20260508123105 11 0 0.0 0.0 0.00 0.03 0.00 86 1016.1
20260508122538 10 0 0.0 4.8 0.00 0.03 0.00 87 1016.1
20260508122040 10 0 0.0 4.8 0.00 0.03 0.00 86 1016.0
20260508121600 10 73 3.2 4.8 0.00 0.03 0.00 87 1015.7
20260508121038 10 69 0.0 0.0 0.00 0.03 0.00 87 1015.8
20260508120538 10 0 0.0 0.0 0.00 0.03 0.00 87 1015.8
20260508120106 10 0 0.0 0.0 0.00 0.03 0.00 88 1015.9
20260508115538 10 0 0.0 0.0 0.00 0.03 0.00 89 1015.8
20260508115036 10 0 0.0 0.0 0.00 0.03 0.00 89 1015.7
20260508114559 9 0 0.0 0.0 0.00 0.03 0.00 92 1015.7
20260508114038 8 0 0.0 0.0 0.00 0.03 0.00 95 1015.7
20260508113538 8 0 0.0 0.0 0.00 0.03 0.00 95 1015.7
20260508113103 8 0 0.0 0.0 0.00 0.03 0.00 95 1015.7
20260508112537 7 0 0.0 0.0 0.00 0.03 0.00 96 1015.6
20260508112037 7 0 0.0 0.0 0.00 0.03 0.00 97 1015.6
20260508111550 7 0 0.0 0.0 0.00 0.03 0.00 97 1015.4
20260508111039 6 0 0.0 0.0 0.00 0.03 0.00 97 1015.4
20260508110538 6 0 0.0 0.0 0.00 0.03 0.00 97 1015.2
20260508110051 6 0 0.0 0.0 0.00 0.03 0.00 97 1015.1
20260508105538 6 0 0.0 0.0 0.00 0.03 0.00 97 1015.0
20260508105039 5 0 0.0 0.0 0.00 0.03 0.00 96 1015.0
20260508104548 5 0 0.0 0.0 0.00 0.03 0.00 95 1014.9
20260508104038 5 0 0.0 0.0 0.00 0.03 0.00 94 1014.7
20260508103538 5 0 0.0 0.0 0.00 0.03 0.00 94 1014.6
20260508103059 5 0 0.0 0.0 0.00 0.03 0.00 94 1014.5
20260508102538 5 0 0.0 0.0 0.00 0.03 0.00 94 1014.3
20260508102038 5 0 0.0 0.0 0.00 0.03 0.00 94 1014.2
20260508101554 5 0 0.0 0.0 0.00 0.03 0.00 94 1014.2
20260508101038 5 0 0.0 0.0 0.00 0.03 0.00 94 1014.1
20260508100537 5 0 0.0 0.0 0.00 0.03 0.00 94 1014.0
20260508100048 5 0 0.0 0.0 0.00 0.03 0.00 94 1013.9
20260508095541 5 0 0.0 0.0 0.00 0.03 0.00 94 1013.8
20260508095038 6 0 0.0 0.0 0.00 0.03 0.00 94 1013.8
20260508094547 6 0 0.0 0.0 0.00 0.03 0.00 94 1013.8
20260508094038 6 0 0.0 0.0 0.00 0.03 0.00 94 1013.8
20260508093538 6 0 0.0 0.0 0.00 0.03 0.00 94 1013.7
20260508093046 6 0 0.0 0.0 0.00 0.03 0.00 94 1013.8
20260508092535 6 0 0.0 0.0 0.00 0.03 0.00 95 1013.8
20260508092034 6 0 0.0 0.0 0.00 0.03 0.00 94 1013.8
20260508091547 6 0 0.0 0.0 0.00 0.03 0.00 94 1013.8
20260508091034 6 0 0.0 0.0 0.00 0.03 0.00 94 1013.8
20260508090534 6 0 0.0 0.0 0.00 0.03 0.00 94 1013.8
20260508090059 6 0 0.0 0.0 0.00 0.03 0.00 94 1013.7
20260508085533 6 0 0.0 0.0 0.00 0.03 0.00 94 1013.6
20260508085034 6 0 0.0 0.0 0.00 0.03 0.00 94 1013.6
20260508084549 6 0 0.0 0.0 0.00 0.03 0.00 94 1013.5
20260508084034 7 0 0.0 0.0 0.00 0.03 0.00 94 1013.6
20260508083535 7 0 0.0 0.0 0.00 0.03 0.00 94 1013.5
20260508083049 7 0 0.0 0.0 0.00 0.03 0.00 94 1013.5
20260508082536 7 0 0.0 0.0 0.00 0.03 0.00 94 1013.4
20260508082035 7 0 0.0 0.0 0.00 0.03 0.00 94 1013.4
20260508081548 7 0 0.0 0.0 0.00 0.03 0.00 94 1013.4
20260508081034 7 0 0.0 0.0 0.00 0.03 0.00 94 1013.3
20260508080535 7 0 0.0 0.0 0.00 0.03 0.00 94 1013.3
20260508080050 7 0 0.0 0.0 0.00 0.03 0.00 94 1013.3
20260508075534 7 0 0.0 0.0 0.00 0.03 0.00 94 1013.3
20260508075033 7 0 0.0 0.0 0.00 0.03 0.00 94 1013.2
20260508074551 7 0 0.0 0.0 0.00 0.03 0.00 94 1013.2
20260508074036 7 0 0.0 0.0 0.00 0.03 0.00 94 1013.2
20260508073534 7 0 0.0 0.0 0.00 0.03 0.00 94 1013.2
20260508073047 7 0 0.0 0.0 0.00 0.03 0.00 94 1013.2
20260508072535 7 0 0.0 0.0 0.00 0.03 0.00 94 1013.1
20260508072034 7 0 0.0 0.0 0.00 0.03 0.00 94 1013.0
20260508071551 7 0 0.0 0.0 0.00 0.03 0.00 94 1013.0
20260508071034 7 0 0.0 0.0 0.00 0.03 0.00 94 1012.9
20260508070534 7 0 0.0 0.0 0.00 0.03 0.00 94 1012.9
20260508070054 8 0 0.0 0.0 0.00 0.03 0.00 94 1012.8
20260508065533 8 0 0.0 0.0 0.00 0.05 0.00 94 1012.8
20260508065035 8 0 0.0 0.0 0.00 0.05 0.00 94 1012.7
20260508064551 8 0 0.0 0.0 0.00 0.05 0.00 94 1012.5
20260508064034 8 0 0.0 0.0 0.00 0.05 0.00 94 1012.4
20260508063534 8 0 0.0 0.0 0.00 0.05 0.00 94 1012.4
20260508063102 8 0 0.0 0.0 0.00 0.05 0.00 94 1012.3
20260508062536 8 0 0.0 0.0 0.00 0.05 0.00 94 1012.2
20260508062034 7 0 0.0 0.0 0.00 0.05 0.00 94 1012.2
20260508061548 7 0 0.0 0.0 0.00 0.05 0.00 94 1012.1
20260508061037 7 0 0.0 0.0 0.00 0.05 0.00 94 1012.0
20260508060533 7 0 0.0 0.0 0.00 0.05 0.00 93 1012.0
20260508060049 7 0 0.0 0.0 0.00 0.05 0.00 93 1012.0
20260508055534 7 0 0.0 0.0 0.00 0.08 0.00 93 1011.9
20260508055034 7 0 0.0 0.0 0.00 0.08 0.00 93 1012.0
20260508054542 7 0 0.0 0.0 0.00 0.08 0.00 93 1012.0
20260508054033 8 0 0.0 0.0 0.00 0.08 0.00 92 1011.9
20260508053534 8 0 0.0 0.0 0.00 0.08 0.00 92 1011.9
20260508053055 8 0 0.0 0.0 0.00 0.08 0.00 92 1011.9
20260508052534 8 0 0.0 0.0 0.00 0.08 0.00 92 1011.9
20260508052034 8 0 0.0 0.0 0.00 0.08 0.00 92 1011.9
20260508051552 8 0 0.0 0.0 0.00 0.08 0.00 92 1011.8
20260508051040 8 0 0.0 0.0 0.00 0.08 0.00 92 1011.9
20260508050537 8 0 0.0 0.0 0.00 0.08 0.00 92 1011.9
20260508050047 8 0 0.0 0.0 0.00 0.08 0.00 92 1011.7
20260508045534 8 0 0.0 0.0 0.00 0.10 0.00 92 1011.8
20260508045034 8 0 0.0 0.0 0.00 0.10 0.00 92 1011.7
20260508044546 8 0 0.0 0.0 0.00 0.10 0.00 92 1011.7
20260508044034 8 0 0.0 0.0 0.00 0.10 0.00 91 1011.7
20260508043534 8 0 0.0 0.0 0.00 0.10 0.00 92 1011.6
20260508043057 8 0 0.0 0.0 0.00 0.10 0.00 91 1011.5
20260508042535 9 0 0.0 0.0 0.00 0.10 0.00 91 1011.5
20260508042036 9 0 0.0 0.0 0.00 0.10 0.00 91 1011.6
20260508041558 9 0 0.0 0.0 0.00 0.10 0.00 91 1011.5
20260508041037 9 0 0.0 0.0 0.00 0.10 0.00 91 1011.6
20260508040536 9 0 0.0 0.0 0.00 0.10 0.00 90 1011.5
20260508040051 9 0 0.0 0.0 0.00 0.10 0.00 90 1011.4
20260508035535 9 0 0.0 0.0 0.00 0.10 0.10 90 1011.3
20260508035034 10 0 0.0 0.0 0.00 0.10 0.10 89 1011.4
20260508034547 10 0 0.0 0.0 0.00 0.10 0.10 89 1011.3
20260508034037 10 0 0.0 0.0 0.00 0.10 0.10 89 1011.3
20260508033536 10 0 0.0 0.0 0.00 0.10 0.10 88 1011.3
20260508033048 10 0 0.0 0.0 0.00 0.10 0.10 88 1011.3
20260508032537 10 0 0.0 0.0 0.00 0.10 0.10 87 1011.3
20260508032039 10 0 0.0 0.0 0.00 0.10 0.10 87 1011.3
20260508031546 10 0 0.0 0.0 0.00 0.10 0.10 87 1011.3
20260508031035 10 0 0.0 0.0 0.00 0.10 0.10 86 1011.3
20260508030538 10 0 0.0 0.0 0.00 0.10 0.10 86 1011.2
20260508030052 11 0 0.0 0.0 0.00 0.10 0.10 85 1011.2
20260508025538 11 0 0.0 0.0 0.00 0.10 0.10 84 1011.2
20260508025039 11 0 0.0 0.0 0.00 0.10 0.10 85 1011.2
20260508024550 11 0 0.0 0.0 0.00 0.10 0.10 83 1011.1
20260508024038 11 0 0.0 0.0 0.00 0.10 0.10 83 1011.1
20260508023538 11 0 0.0 0.0 0.00 0.10 0.10 83 1011.1
20260508023048 11 0 0.0 0.0 0.00 0.10 0.10 82 1011.1
20260508022539 11 0 0.0 0.0 0.00 0.10 0.10 82 1011.2
20260508022038 11 0 0.0 0.0 0.00 0.10 0.10 82 1011.1
20260508021554 11 0 0.0 0.0 0.00 0.10 0.10 81 1011.1
20260508021037 11 0 0.0 0.0 0.00 0.10 0.10 81 1011.1
20260508020537 11 0 0.0 0.0 0.00 0.10 0.10 81 1011.1
20260508020049 11 0 0.0 0.0 0.00 0.10 0.10 80 1011.0
20260508015537 11 0 0.0 1.6 0.00 0.10 0.10 80 1011.0
20260508015038 11 0 0.0 4.8 0.00 0.10 0.10 79 1010.9
20260508014551 11 0 0.0 4.8 0.00 0.10 0.10 79 1010.8
20260508014038 11 0 0.0 0.0 0.00 0.10 0.10 79 1010.8
20260508013538 11 0 0.0 0.0 0.00 0.10 0.10 79 1010.8
20260508013057 11 0 0.0 0.0 0.00 0.10 0.10 79 1010.8
20260508012538 11 0 0.0 0.0 0.00 0.10 0.10 78 1010.7
20260508012039 11 0 0.0 0.0 0.00 0.10 0.10 78 1010.7
20260508011554 11 0 0.0 0.0 0.00 0.10 0.10 78 1010.6
20260508011035 11 0 0.0 0.0 0.00 0.10 0.10 78 1010.7
20260508010538 12 0 0.0 0.0 0.00 0.10 0.10 77 1010.7
20260508010048 12 0 0.0 0.0 0.00 0.10 0.10 78 1010.6
20260508005537 12 0 0.0 0.0 0.00 0.10 0.10 77 1010.5
20260508005041 12 0 0.0 0.0 0.00 0.10 0.10 77 1010.4
20260508004547 12 0 0.0 0.0 0.00 0.10 0.10 76 1010.4
20260508004040 12 0 0.0 0.0 0.00 0.10 0.10 76 1010.4
20260508003537 12 0 0.0 0.0 0.00 0.10 0.10 76 1010.4
20260508003051 12 0 0.0 0.0 0.00 0.10 0.10 75 1010.3
20260508002539 12 0 0.0 1.6 0.00 0.10 0.10 75 1010.3
20260508002037 12 0 0.0 4.8 0.00 0.10 0.10 75 1010.3
20260508001609 12 0 0.0 4.8 0.00 0.10 0.10 75 1010.3
20260508001041 13 0 0.0 4.8 0.00 0.10 0.10 74 1010.2
20260508000541 13 0 0.0 4.8 0.00 0.10 0.10 74 1010.2
20260508000053 13 0 0.0 6.4 0.00 0.10 0.10 74 1010.1
20260507235539 13 0 0.0 6.4 0.00 0.10 0.10 73 1010.1
20260507235038 13 225 1.6 8.0 0.00 0.10 0.10 72 1010.0
20260507234551 13 209 1.6 8.0 0.00 0.10 0.10 72 1009.9
20260507234058 13 161 1.6 8.0 0.00 0.10 0.10 72 1009.8
20260507233538 13 0 1.6 8.0 0.00 0.10 0.10 73 1009.7
20260507233047 13 221 1.6 6.4 0.00 0.10 0.10 72 1009.7
20260507232538 13 139 0.0 6.4 0.00 0.10 0.10 71 1009.6
20260507232038 13 148 1.6 6.4 0.00 0.10 0.10 72 1009.5
20260507231548 13 136 0.0 12.9 0.00 0.10 0.10 71 1009.3
20260507231037 13 0 1.6 12.9 0.00 0.10 0.10 72 1009.3
20260507230538 13 194 1.6 12.9 0.00 0.10 0.10 73 1009.3
20260507230049 13 146 1.6 8.0 0.00 0.10 0.10 73 1009.3
20260507225540 13 0 1.6 14.5 0.00 0.10 0.10 73 1009.2
20260507225038 13 192 3.2 14.5 0.00 0.10 0.10 74 1009.3
20260507224557 13 103 0.0 16.1 0.00 0.10 0.10 73 1009.3
20260507224040 13 256 3.2 16.1 0.00 0.10 0.10 73 1009.3
20260507223539 14 180 3.2 14.5 0.00 0.10 0.10 73 1009.2
20260507223053 14 139 4.8 14.5 0.00 0.10 0.10 74 1009.2
20260507222537 14 69 3.2 11.3 0.00 0.10 0.10 74 1009.2
20260507222042 14 58 1.6 12.9 0.00 0.10 0.10 72 1009.3
20260507221553 14 143 1.6 12.9 0.00 0.10 0.10 71 1009.3
20260507221036 14 211 1.6 12.9 0.00 0.10 0.10 73 1009.3
20260507220537 13 205 1.6 12.9 0.00 0.10 0.10 72 1009.1
20260507220049 13 231 3.2 12.9 0.00 0.10 0.10 72 1008.9
20260507215538 13 167 1.6 11.3 0.00 0.10 0.10 73 1008.9
20260507215037 13 52 3.2 16.1 0.00 0.10 0.10 72 1009.0
20260507214553 13 82 4.8 16.1 0.00 0.10 0.10 72 1009.0
20260507214037 13 0 4.8 12.9 0.00 0.10 0.10 73 1009.0
20260507213538 13 61 4.8 12.9 0.00 0.10 0.10 72 1009.0
20260507213046 13 101 1.6 11.3 0.00 0.10 0.10 72 1009.1
20260507212537 13 273 1.6 11.3 0.00 0.10 0.10 72 1009.2
20260507212037 13 65 3.2 9.7 0.00 0.10 0.10 72 1009.2
20260507211555 13 59 3.2 12.9 0.00 0.10 0.10 70 1009.2
20260507211037 13 0 3.2 12.9 0.00 0.10 0.10 69 1009.3
20260507210541 14 73 6.4 12.9 0.00 0.10 0.10 70 1009.1
20260507210054 14 243 4.8 14.5 0.00 0.10 0.10 70 1009.3
20260507205537 13 142 3.2 14.5 0.00 0.10 0.10 71 1009.4
20260507205103 13 169 4.8 14.5 0.00 0.10 0.10 72 1009.3
20260507204556 13 147 3.2 16.1 0.00 0.10 0.10 73 1009.3
20260507204038 13 55 6.4 16.1 0.00 0.10 0.10 70 1009.3
20260507203537 14 89 4.8 16.1 0.00 0.10 0.10 68 1009.3
20260507203055 14 120 4.8 16.1 0.00 0.10 0.10 67 1009.4
20260507202539 14 252 3.2 11.3 0.00 0.10 0.10 66 1009.4
20260507202042 14 240 1.6 9.7 0.00 0.10 0.10 68 1009.4
20260507201553 14 298 3.2 11.3 0.00 0.10 0.10 68 1009.5
20260507201039 13 161 3.2 11.3 0.00 0.10 0.10 69 1009.4
20260507200538 13 71 4.8 9.7 0.00 0.10 0.10 69 1009.4
20260507200045 13 52 1.6 16.1 0.00 0.10 0.10 70 1009.4
20260507195538 13 57 8.0 16.1 0.00 0.10 0.10 67 1009.4
20260507195038 13 85 8.0 16.1 0.00 0.10 0.10 68 1009.5
20260507194549 13 67 4.8 12.9 0.00 0.10 0.10 66 1009.6
20260507194037 13 0 0.0 12.9 0.00 0.10 0.10 67 1009.7
20260507193537 13 0 4.8 12.9 0.00 0.10 0.10 65 1010.0
20260507193054 13 84 0.0 12.9 0.00 0.10 0.10 67 1009.8
20260507192537 13 105 1.6 14.5 0.03 0.10 0.10 67 1009.8
20260507192038 13 69 6.4 14.5 0.03 0.10 0.10 68 1009.6
20260507191554 13 64 1.6 17.7 0.03 0.10 0.10 67 1009.6
20260507191037 12 89 6.4 17.7 0.03 0.10 0.10 68 1009.7
20260507190539 13 59 6.4 14.5 0.03 0.10 0.10 69 1009.5
20260507190053 13 159 4.8 12.9 0.03 0.10 0.10 67 1010.0
20260507185538 13 102 4.8 12.9 0.03 0.10 0.10 69 1010.1
20260507185040 12 64 3.2 8.0 0.03 0.10 0.10 70 1010.1
20260507184550 12 76 3.2 9.7 0.03 0.10 0.10 68 1010.2
20260507184039 12 65 0.0 9.7 0.03 0.10 0.10 68 1010.1
20260507183540 12 65 6.4 9.7 0.03 0.10 0.10 66 1010.3
20260507183046 13 73 1.6 4.8 0.03 0.10 0.10 62 1010.6
20260507182538 13 77 0.0 3.2 0.00 0.08 0.08 60 1010.5
20260507182039 13 0 0.0 12.9 0.00 0.08 0.08 60 1010.3
20260507181552 13 0 1.6 12.9 0.00 0.08 0.08 58 1010.7
20260507181038 13 0 0.0 8.0 0.00 0.08 0.08 57 1010.4
20260507180538 13 0 1.6 8.0 0.00 0.08 0.08 57 1010.4
20260507180053 13 14 0.0 8.0 0.00 0.08 0.08 56 1010.3
20260507175538 13 0 1.6 9.7 0.00 0.08 0.08 54 1010.7
20260507175038 13 69 3.2 9.7 0.00 0.08 0.08 52 1010.8
20260507174554 13 0 0.0 6.4 0.00 0.08 0.08 56 1010.8
20260507174037 13 34 1.6 6.4 0.00 0.08 0.08 53 1010.6
20260507173541 13 31 3.2 6.4 0.00 0.08 0.08 56 1010.6
20260507173053 13 345 1.6 4.8 0.00 0.08 0.08 56 1010.6
20260507172539 13 35 0.0 4.8 0.00 0.08 0.08 60 1010.7
20260507172038 13 0 0.0 3.2 0.00 0.08 0.08 62 1010.9
20260507171603 13 0 0.0 4.8 0.00 0.08 0.08 64 1010.8
20260507171038 13 352 0.0 4.8 0.00 0.08 0.08 62 1011.2
20260507170539 13 0 0.0 3.2 0.00 0.08 0.08 64 1011.1
20260507170056 13 352 0.0 4.8 0.00 0.08 0.08 64 1011.0
20260507165538 13 15 0.0 4.8 0.00 0.08 0.08 61 1010.9
20260507165038 13 0 0.0 4.8 0.00 0.08 0.08 62 1011.1
20260507164551 13 0 0.0 0.0 0.00 0.08 0.08 64 1011.2
20260507164040 13 0 0.0 0.0 0.00 0.08 0.08 64 1011.4
20260507163538 13 0 0.0 0.0 0.00 0.08 0.08 64 1011.5
20260507163054 13 0 0.0 0.0 0.00 0.08 0.08 63 1011.7
20260507162538 13 0 0.0 0.0 0.00 0.08 0.08 63 1011.6
20260507162038 13 0 0.0 0.0 0.00 0.08 0.08 66 1011.6
20260507161549 13 0 0.0 0.0 0.00 0.08 0.08 65 1011.8
20260507161041 13 0 0.0 0.0 0.00 0.08 0.08 68 1011.4
20260507160538 13 0 0.0 0.0 0.00 0.08 0.08 68 1011.3
20260507160055 13 0 0.0 0.0 0.00 0.08 0.08 67 1011.3
20260507155538 13 0 0.0 0.0 0.00 0.08 0.08 66 1011.7
20260507155038 13 0 0.0 0.0 0.00 0.08 0.08 65 1011.7
20260507154552 13 0 0.0 0.0 0.00 0.08 0.08 64 1011.8
20260507154038 13 0 0.0 0.0 0.00 0.08 0.08 65 1011.7
20260507153538 13 0 0.0 0.0 0.00 0.08 0.08 64 1011.5
20260507153058 13 0 0.0 4.8 0.00 0.08 0.08 64 1011.5
20260507152538 13 0 0.0 4.8 0.00 0.08 0.08 63 1011.6
20260507152038 13 306 0.0 4.8 0.00 0.08 0.08 64 1011.7
20260507151552 13 355 0.0 6.4 0.00 0.08 0.08 64 1011.7
20260507151040 13 5 1.6 6.4 0.00 0.08 0.08 65 1011.7
20260507150539 13 0 1.6 6.4 0.00 0.08 0.08 66 1011.6
20260507150051 13 0 1.6 6.4 0.00 0.08 0.08 67 1011.7
20260507145539 13 319 3.2 6.4 0.00 0.23 0.08 68 1011.5
20260507145038 13 360 0.0 4.8 0.00 0.23 0.08 69 1011.8
20260507144552 13 332 1.6 4.8 0.00 0.23 0.08 71 1011.9
20260507144039 13 0 0.0 6.4 0.00 0.23 0.08 72 1012.0
20260507143538 13 360 1.6 6.4 0.00 0.23 0.08 71 1012.2
20260507143053 13 9 0.0 6.4 0.00 0.23 0.08 70 1012.2
20260507142539 13 0 0.0 6.4 0.00 0.23 0.08 71 1012.2
20260507142039 13 0 0.0 6.4 0.00 0.23 0.08 71 1012.1
20260507141552 13 0 1.6 8.0 0.00 0.23 0.08 70 1012.2
20260507141038 13 20 1.6 8.0 0.00 0.23 0.08 71 1012.2
20260507140539 13 52 0.0 4.8 0.00 0.23 0.08 70 1012.3
20260507140054 13 0 0.0 4.8 0.00 0.23 0.08 69 1012.3
20260507135541 13 331 1.6 6.4 0.00 0.25 0.08 69 1012.4
20260507135038 13 349 1.6 6.4 0.00 0.25 0.08 68 1012.3
20260507134555 13 0 0.0 4.8 0.00 0.25 0.08 70 1012.4
20260507134038 13 0 1.6 4.8 0.00 0.25 0.08 70 1012.3
20260507133538 13 9 1.6 6.4 0.00 0.25 0.08 70 1012.2
20260507133057 13 352 1.6 9.7 0.00 0.25 0.08 70 1012.0
20260507132537 13 349 3.2 9.7 0.00 0.25 0.08 69 1012.1
20260507132041 13 327 3.2 9.7 0.00 0.25 0.08 69 1012.0
20260507131601 13 0 1.6 6.4 0.00 0.25 0.08 71 1012.1
20260507131039 13 0 0.0 4.8 0.00 0.25 0.08 73 1012.1
20260507130538 13 0 0.0 4.8 0.00 0.25 0.08 73 1012.0
20260507130107 13 321 1.6 4.8 0.00 0.25 0.08 74 1012.0
20260507125539 13 355 0.0 4.8 0.00 0.25 0.08 75 1012.2